Location: Aigremont
(47.7188°N, 3.8925°E)
Time: 05:35:01
(UTC+00:00)

Daily predictions for brighter satellites

Satellite Brightness Start Highest point End
(mag) Time Altitude Azimuth Time Altitude Azimuth Time Altitude Azimuth
USA 215 4.4 02:31:51 10° NE 02:35:33 37° NE 02:35:33 37° NE
SL-16 R/B 4.3 02:46:27 21° E 02:46:27 21° E 02:49:50 10° NE
NOSS 3-1 (A) 4.3 02:56:40 61° NE 02:56:40 61° NE 03:04:46 10° ESE
Cosmos 2333 Rocket 4.1 03:19:49 21° N 03:19:49 21° N 03:21:56 10° NNE
IDEFIX/ARIANE 42P 4.2 03:19:30 10° NNE 03:21:52 27° NNE 03:21:52 27° NNE
BREEZE M DEB (TANK) 4.5 03:09:24 10° WNW 03:36:16 78° SSW 03:41:50 10° ESE
ATLAS CENTAUR R/B 3.0 03:46:18 36° NE 03:46:18 36° NE 03:49:02 10° NE
Cosmos 2237 Rocket 3.2 03:48:41 37° N 03:48:41 37° N 03:52:17 10° NNE
Lacrosse 5 2.6 03:47:37 50° ENE 03:47:37 50° ENE 03:51:53 10° ESE
NOSS 3-1 (C) 4.2 03:53:58 56° SSW 03:53:58 56° SSW 04:01:23 10° SSE
MSX 3.8 03:49:18 10° NNE 03:54:27 73° N 03:54:27 73° N
H-2A R/B 4.3 03:51:08 10° NNE 03:55:04 32° E 03:57:25 20° SE
BREEZE-M DEB (TANK) 3.9 03:54:29 58° WNW 03:55:47 71° NNW 04:00:14 10° ENE
Cosmos 2219 Rocket 4.0 03:58:46 20° NNW 03:58:46 20° NNW 04:01:18 10° N
ADEOS 3.7 03:51:40 10° NNE 03:56:18 69° NE 03:56:18 69° NE
BREEZE-M DEB (TANK) 4.3 03:58:30 55° ESE 03:58:30 55° ESE 04:05:27 10° ENE
CZ-2C R/B 2.8 03:53:27 10° NNE 03:58:38 64° E 03:59:16 58° SE
Meteor 1-31 Rocket 4.4 03:56:11 10° NNE 03:59:24 32° E 03:59:24 32° E
CZ-4C R/B 2.9 04:02:10 42° NNW 04:02:10 42° NNW 04:07:26 10° NE
Meteor 2-10 Rocket 3.5 04:03:59 79° ESE 04:04:06 80° E 04:09:19 10° NNE
COSMOS 2428 4.5 04:16:33 19° NNW 04:16:33 19° NNW 04:19:27 10° N
Cosmos 1934 Rocket 3.9 04:09:25 10° NNW 04:15:38 64° W 04:21:53 10° S
NOSS 2-1 (E) 4.4 04:17:28 37° NE 04:17:28 37° NE 04:19:58 10° NE
Cosmos 1943 Rocket 2.4 04:13:12 19° NNW 04:17:08 67° ENE 04:22:36 10° SE
ALOS 4.2 04:15:11 10° NNE 04:19:17 29° E 04:23:20 10° SSE
USA 215 3.8 04:14:56 10° NE 04:21:06 45° NNW 04:22:54 37° NW
CZ-4B R/B 4.4 04:18:08 10° NNE 04:22:24 63° E 04:24:21 31° S
COSMO-SKYMED 1 3.7 04:19:55 10° SE 04:24:02 44° ENE 04:28:11 10° N
SL-16 R/B 2.1 04:28:21 58° WSW 04:29:12 66° WNW 04:34:53 10° NNE
Cosmos 2221 3.2 04:29:36 10° S 04:33:44 52° E 04:37:56 10° NNE
Cosmos 1605 Rocket 3.9 04:31:39 10° NNW 04:37:50 65° W 04:43:54 10° S
Cosmos 2369 Rocket 2.3 04:35:45 10° NNW 04:41:32 81° ENE 04:47:15 10° SSE
Aureole 2 Rocket 3.4 04:42:35 32° NNE 04:43:25 40° ENE 04:46:23 10° SE
Spot 2 4.4 04:39:34 10° N 04:42:46 45° NNW 04:42:46 45° NNW
Cosmos 1603 4.4 04:39:57 10° S 04:45:30 55° ESE 04:51:03 10° NE
NOSS 3-1 (A) 4.4 04:44:10 31° WNW 04:47:24 44° WSW 04:55:24 10° S
Meteor PRIRODA 3.7 04:47:31 10° NNE 04:51:15 77° ESE 04:54:56 10° S
Cosmos 1153 Rocket 4.3 04:45:10 10° NNW 04:51:21 78° W 04:57:26 10° S
Cosmos 1943 4.2 04:46:18 10° S 04:51:38 47° ESE 04:57:02 10° NE
Cosmos 2263 4.4 04:47:47 10° NNW 04:53:32 74° ENE 04:59:10 10° SSE
STARLINK-1179 4.5 04:55:12 22° NNE 04:55:12 22° NNE 04:56:54 10° ENE
STARLINK-1176 4.4 04:55:41 22° NNE 04:55:41 22° NNE 04:57:25 10° ENE
Meteor 2-3 Rocket 3.7 04:51:46 10° NNW 04:57:27 62° W 05:03:08 10° S
Cosmos 1656 Rocket 4.3 04:56:26 10° NNW 05:02:03 58° ENE 05:07:39 10° SE
Cosmos 2333 Rocket 4.3 05:01:49 11° NW 05:02:35 11° NNW 05:04:20 10° N
IDEFIX/ARIANE 42P 4.2 05:00:19 10° NNW 05:02:41 17° NW 05:02:41 17° NW
Cosmos 1727 Rocket 3.9 04:59:30 10° SSW 05:05:40 70° W 05:11:51 10° N
Cosmos 1633 3.0 05:02:28 10° N 05:06:05 63° E 05:09:42 10° SSE
Cosmos 1238 4.5 05:03:08 10° S 05:06:08 65° E 05:09:12 10° NNE
Cosmos 1484 Rocket 2.7 05:02:22 10° N 05:06:18 66° WNW 05:10:14 10° SSW
Cosmos 2251 Rocket 4.2 05:08:58 29° W 05:10:27 34° WNW 05:15:18 10° N
Cosmos 1805 Rocket 3.8 05:06:27 10° N 05:10:47 69° E 05:15:06 10° SSE
SKYMED 2 3.5 05:07:48 10° S 05:12:05 61° W 05:16:25 10° NNW
Cosmos 2173 Rocket 4.0 05:07:18 10° N 05:13:39 88° W 05:19:53 10° S
STARLINK-1153 4.1 05:14:21 25° NNW 05:15:01 27° N 05:17:36 10° ENE
STARLINK-1180 4.1 05:14:33 25° NNW 05:15:14 27° N 05:17:51 10° ENE
Sich 1 3.7 05:11:19 10° N 05:15:33 56° ENE 05:19:47 10° SSE
STARLINK-1174 4.1 05:15:00 24° NNW 05:15:41 27° N 05:18:17 10° ENE
NOSS 2-1 (C) 4.2 05:15:15 26° NW 05:15:44 27° NW 05:19:07 10° NNE
STARLINK-1139 4.1 05:15:13 24° NNW 05:15:55 27° N 05:18:30 10° ENE
STARLINK-1133 4.1 05:15:25 24° NNW 05:16:08 27° N 05:18:43 10° ENE
STARLINK-1151 4.2 05:15:40 24° NNW 05:16:23 27° N 05:18:59 10° ENE
STARLINK-1160 4.2 05:16:18 24° NNW 05:17:04 27° N 05:19:39 10° ENE
STARLINK-1161 4.2 05:16:32 24° NNW 05:17:17 27° N 05:19:53 10° ENE
STARLINK-1145 4.2 05:16:44 24° NNW 05:17:31 27° N 05:20:06 10° ENE
STARLINK-1172 4.2 05:16:57 24° NNW 05:17:44 27° N 05:20:19 10° ENE
STARLINK-1162 4.3 05:17:03 24° NNW 05:18:05 30° N 05:20:56 10° ENE
STARLINK-1182 4.2 05:17:23 24° NNW 05:18:11 27° N 05:20:47 10° ENE
Cosmos 1500 Rocket 3.8 05:14:05 10° NNW 05:18:21 47° W 05:22:34 10° SSW
STARLINK-1164 4.2 05:17:35 24° NNW 05:18:24 27° N 05:21:00 10° ENE
STARLINK-1168 4.2 05:17:49 23° NNW 05:18:38 27° N 05:21:13 10° ENE
CZ-4B R/B 3.1 05:15:32 10° N 05:18:59 37° WNW 05:20:20 26° WSW
STARLINK-1183 4.2 05:18:27 23° NNW 05:19:18 27° N 05:21:54 10° ENE
STARLINK-1181 4.2 05:18:40 23° NNW 05:19:32 27° N 05:22:06 10° ENE
NOSS 2-1 (D) 4.3 05:19:13 24° NW 05:19:50 25° NW 05:23:09 10° NNE
STARLINK-1157 4.3 05:18:51 23° NW 05:19:58 30° N 05:22:50 10° ENE
STARLINK-1196 4.2 05:19:20 23° NNW 05:20:13 27° N 05:22:49 10° ENE
STARLINK-1186 4.2 05:19:46 23° NNW 05:20:40 27° N 05:23:16 10° ENE
STARLINK-1185 4.2 05:19:58 23° NNW 05:20:53 27° N 05:23:29 10° ENE
STARLINK-1175 4.2 05:20:12 23° NNW 05:21:07 27° N 05:23:43 10° ENE
PSLV R/B 3.6 05:17:32 10° N 05:21:16 67° WNW 05:25:00 10° SSW
STARLINK-1147 4.2 05:20:24 23° NNW 05:21:20 27° N 05:23:56 10° ENE
STARLINK-1146 4.2 05:20:36 23° NNW 05:21:35 28° N 05:24:11 10° ENE
STARLINK-1152 4.2 05:20:50 22° NNW 05:21:48 27° N 05:24:24 10° ENE
STARLINK-1195 4.2 05:21:03 22° NNW 05:22:01 27° N 05:24:37 10° ENE
STARLINK-1159 4.3 05:20:51 23° NW 05:22:04 30° N 05:24:55 10° ENE
STARLINK-1137 4.2 05:21:16 22° NNW 05:22:15 27° N 05:24:51 10° ENE
STARLINK-1142 4.2 05:21:30 22° NNW 05:22:29 27° N 05:25:05 10° ENE
STARLINK-1127 4.2 05:21:42 22° NNW 05:22:41 27° N 05:25:17 10° ENE
ATLAS 2AS CENTAUR R/B 4.1 05:15:43 10° NW 05:22:51 37° NNE 05:29:30 10° E
STARLINK-1184 4.2 05:21:56 22° NNW 05:22:56 27° N 05:25:32 10° ENE
Cosmos 1238 Rocket 3.9 05:16:38 10° N 05:22:58 80° E 05:28:20 10° SSE
Meteor 2-2 Rocket 4.3 05:17:01 10° SSW 05:23:02 82° W 05:29:07 10° N
STARLINK-1193 4.2 05:22:08 22° NNW 05:23:09 28° N 05:25:45 10° ENE
STARLINK-1194 4.2 05:22:21 22° NNW 05:23:22 28° N 05:25:58 10° ENE
ATLAS CENTAUR R/B 2.8 05:22:31 22° WNW 05:23:51 25° NW 05:27:32 10° NNE
Okean O Rocket 2.4 05:19:39 10° NNE 05:23:59 54° E 05:28:14 10° S
STARLINK-1171 4.2 05:22:59 22° NW 05:24:16 30° N 05:27:09 10° ENE
PAYLOAD B 4.5 05:20:24 10° NNE 05:26:01 76° ESE 05:31:34 10° S
STARLINK-1155 4.2 05:24:44 21° NW 05:26:08 30° N 05:29:00 10° ENE
Meteor 1-27 4.3 05:21:57 10° SSW 05:27:21 52° WNW 05:32:47 10° N
Cosmos 2100 Rocket 3.9 05:21:20 10° NNW 05:27:31 66° W 05:33:36 10° S
STARLINK-1166 4.2 05:26:53 20° NW 05:28:22 30° N 05:31:14 10° ENE
Lacrosse 5 2.4 05:26:51 20° WNW 05:29:48 40° SW 05:34:30 10° SSE
Cosmos 1743 Rocket 4.2 05:26:15 10° NNW 05:30:07 32° W 05:33:57 10° SSW
STARLINK-1165 4.2 05:28:43 20° NW 05:30:18 30° N 05:33:11 10° ENE
H-2A R/B 3.4 05:26:40 10° N 05:30:29 30° WNW 05:34:00 12° SW
STARLINK-1149 4.1 05:29:32 19° NNW 05:30:39 26° N 05:33:00 10° ENE
Cosmos 2237 Rocket 3.9 05:30:31 13° NW 05:32:07 14° NW 05:35:05 10° N
STARLINK-1169 4.2 05:30:43 19° NW 05:32:23 31° N 05:35:16 10° ENE
GEOS 3 Rocket 3.9 05:28:41 10° NNE 05:33:48 50° NW 05:38:30 12° WSW
Meteor 1-31 Rocket 4.0 05:30:57 10° NNW 05:33:55 22° WNW 05:34:48 20° W
STARLINK-1178 4.2 05:32:37 18° NW 05:34:22 31° N 05:37:16 10° ENE
STARLINK-1118 3.1 05:33:40 17° SW 05:35:26 50° SSE 05:37:56 10° ENE
STARLINK-1132 4.1 05:34:49 18° NW 05:36:16 27° N 05:38:44 10° ENE
STARLINK-1120 4.2 05:34:28 18° NW 05:36:18 31° N 05:39:12 10° ENE
CZ-2C R/B 3.7 05:32:32 10° NNW 05:36:22 22° WNW 05:38:39 16° W
STARLINK-1070 3.3 05:35:37 13° SW 05:38:02 54° SSE 05:40:55 10° ENE
STARLINK-1131 4.2 05:36:36 17° NW 05:38:32 31° N 05:41:26 10° ENE
Cosmos 2061 Rocket 4.0 05:32:19 10° N 05:38:39 81° W 05:44:51 10° S
Cosmos 1000 Rocket 4.4 05:32:34 10° SSW 05:38:43 71° W 05:44:57 10° N
STARLINK-1150 4.1 05:37:17 17° NW 05:38:48 27° N 05:41:14 10° ENE
STARLINK-1124 3.0 05:36:35 15° SW 05:38:50 66° SSE 05:41:44 10° ENE
STARLINK-1066 3.3 05:36:40 13° SW 05:39:08 55° SSE 05:42:01 10° ENE
STARLINK-1081 3.3 05:36:55 13° SW 05:39:23 55° SSE 05:42:15 10° ENE
STARLINK-1069 3.2 05:37:19 13° SW 05:39:49 56° SSE 05:42:42 10° ENE
ADEOS Rocket 3.2 05:33:46 10° SSE 05:40:00 89° ENE 05:47:01 10° NNW
STARLINK-1085 3.2 05:37:33 13° SW 05:40:03 56° SSE 05:42:56 10° ENE
STARLINK-1163 4.1 05:38:34 16° NW 05:40:10 28° N 05:42:39 10° ENE
Cosmos 1023 Rocket 4.5 05:34:57 10° SSW 05:40:14 82° WNW 05:45:33 10° NNE
STARLINK-1086 3.2 05:37:46 13° SW 05:40:16 56° SSE 05:43:10 10° ENE
STARLINK-1095 3.2 05:37:59 13° SW 05:40:30 57° SSE 05:43:23 10° ENE
STARLINK-1190 4.2 05:38:38 16° NW 05:40:40 31° N 05:43:35 10° ENE
STARLINK-1077 3.2 05:38:12 13° SW 05:40:44 57° SSE 05:43:37 10° ENE
STARLINK-1075 3.2 05:38:25 13° SW 05:40:57 57° SSE 05:43:50 10° ENE
STARLINK-1093 3.2 05:38:38 12° SW 05:41:10 57° SSE 05:44:03 10° ENE
STARLINK-1074 3.2 05:38:51 12° SW 05:41:23 58° SSE 05:44:17 10° ENE
STARLINK-1087 3.2 05:39:05 12° SW 05:41:38 58° SSE 05:44:31 10° ENE
STARLINK-1088 3.2 05:39:17 12° SW 05:41:50 58° SSE 05:44:44 10° ENE
STARLINK-1173 4.0 05:40:14 16° NW 05:41:52 28° N 05:44:19 10° ENE
STARLINK-1115 3.2 05:39:30 12° SW 05:42:04 59° SSE 05:44:57 10° ENE
STARLINK-1177 4.0 05:40:37 16° NW 05:42:16 28° N 05:44:41 10° ENE
STARLINK-1076 3.2 05:39:43 12° SW 05:42:18 59° SSE 05:45:11 10° ENE
STARLINK-1092 3.2 05:39:56 12° SW 05:42:32 59° SSE 05:45:25 10° ENE
STARLINK-1080 3.1 05:40:09 12° SW 05:42:44 59° SSE 05:45:37 10° ENE
STARLINK-1090 3.1 05:40:22 12° SW 05:42:58 60° SSE 05:45:52 10° ENE
STARLINK-1089 3.1 05:40:35 12° SW 05:43:11 60° SSE 05:46:05 10° ENE
STARLINK-1167 4.0 05:41:41 15° NW 05:43:24 28° N 05:45:51 10° ENE
STARLINK-1107 3.1 05:40:48 12° SW 05:43:24 60° SSE 05:46:18 10° ENE
STARLINK-1109 3.1 05:40:59 12° SW 05:43:37 60° SSE 05:46:31 10° ENE
Cosmos 1459 Rocket 4.1 05:37:52 10° NNW 05:43:51 54° W 05:49:54 10° SSW
STARLINK-1091 3.1 05:41:14 12° SW 05:43:52 61° SSE 05:46:47 10° ENE
STARLINK-1072 3.1 05:41:27 12° SW 05:44:06 61° SSE 05:47:00 10° ENE
STARLINK-1096 3.1 05:41:41 12° SW 05:44:19 61° SSE 05:47:13 10° ENE
STARLINK-1079 3.1 05:41:53 12° SW 05:44:32 62° SSE 05:47:26 10° ENE
STARLINK-1116 3.1 05:42:06 12° SW 05:44:46 62° SSE 05:47:40 10° ENE
STARLINK-1094 3.1 05:42:32 11° SW 05:45:13 62° SSE 05:48:08 10° ENE
STARLINK-1117 3.1 05:42:44 11° SW 05:45:26 63° SSE 05:48:21 10° ENE
STARLINK-1078 3.1 05:42:57 11° SW 05:45:39 63° SSE 05:48:34 10° ENE
STARLINK-1108 3.0 05:43:10 11° SW 05:45:52 63° SSE 05:48:47 10° ENE
STARLINK-1071 3.0 05:43:24 11° SW 05:46:07 64° SSE 05:49:01 10° ENE
STARLINK-1110 3.0 05:43:37 11° SW 05:46:21 64° SSE 05:49:15 10° ENE
STARLINK-1122 3.0 05:44:02 11° SW 05:46:46 65° SSE 05:49:42 10° ENE
STARLINK-1126 3.0 05:44:15 11° SW 05:47:00 65° SSE 05:49:55 10° ENE
STARLINK-1082 3.0 05:44:28 11° SW 05:47:14 65° SSE 05:50:08 10° ENE
STARLINK-1100 3.0 05:44:41 11° SW 05:47:27 65° SSE 05:50:22 10° ENE
BREEZE M DEB (TANK) 3.6 05:44:47 16° WNW 05:47:30 87° NNE 05:57:17 10° ESE
TELKOM 3 3.3 05:46:25 21° WNW 05:47:34 43° N 05:49:36 10° E
STARLINK-1083 3.0 05:44:54 11° SW 05:47:41 66° SSE 05:50:35 10° ENE
METEOR-M 4.3 05:42:41 10° N 05:47:52 52° WNW 05:53:02 10° SW
STARLINK-1125 3.0 05:45:08 11° SW 05:47:55 66° SSE 05:50:50 10° ENE
STARLINK-1130 (DARKSAT) 4.4 05:44:30 10° SW 05:48:20 49° SE 05:52:12 10° ENE
STARLINK-1136 4.0 05:46:27 14° NW 05:48:26 29° N 05:50:57 10° ENE
STARLINK-1121 4.4 05:45:15 10° SW 05:49:09 49° SE 05:53:03 10° ENE
Shenzhou-11 Module 4.0 05:47:33 10° SW 05:49:33 19° SSE 05:51:32 10° ESE
CZ-4C R/B 4.0 05:47:21 10° WNW 05:51:41 21° N 05:56:42 10° NE
Cosmos 1725 Rocket 4.0 05:46:02 10° N 05:52:18 82° W 05:58:35 10° S
STARLINK-1084 4.3 05:48:54 10° SW 05:52:47 52° SE 05:56:41 10° ENE
Cosmos 1400 Rocket 2.9 05:49:19 10° S 05:53:19 84° ESE 05:57:26 10° NNE
STARLINK-1106 4.3 05:49:56 10° SW 05:53:52 53° SE 05:57:48 10° ENE
Cosmos 1954 Rocket 4.1 05:49:30 10° SSW 05:54:50 90° WNW 06:00:12 10° NNE
Cosmos 1869 4.0 05:51:48 10° SW 05:55:24 31° WNW 05:58:59 10° N
Cosmos 2123 Rocket 4.0 05:50:04 10° S 05:56:24 84° W 06:02:44 10° N
ALOS 2.8 05:52:29 10° N 05:56:44 35° WNW 06:00:59 10° SW
Cosmos 407 Rocket 3.8 05:51:39 10° SW 05:56:47 47° WNW 06:01:54 10° NNE
STARLINK-1112 4.2 05:54:40 10° SW 05:58:37 57° SE 06:02:36 10° ENE
STARLINK-1129 4.1 05:57:12 11° WNW 06:00:07 35° N 06:03:07 10° E
Cosmos 921 Rocket 3.8 05:56:15 10° NW 06:00:09 31° W 06:03:59 10° SSW
Cosmos 1943 Rocket 3.3 05:56:21 10° NW 06:00:20 21° W 06:04:18 10° SSW
COSMO-SKYMED 1 3.8 05:57:07 10° SW 06:00:24 21° W 06:03:43 10° NW
USA 116 4.2 05:57:53 10° SSW 06:00:35 25° W 06:03:13 10° NW
Cosmos 1140 Rocket 3.6 05:55:33 10° SW 06:00:43 58° WNW 06:05:55 10° NNE
Cosmos 1802 Rocket 4.3 05:55:17 10° NNW 06:01:27 50° W 06:07:35 10° SSW
STARLINK-1134 4.1 05:59:02 10° WNW 06:02:02 35° N 06:05:03 10° E
USA 215 4.1 05:57:19 10° ENE 06:03:20 41° N 06:09:21 10° WNW
Cosmos 1606 4.3 06:00:31 10° SSE 06:04:06 40° E 06:07:41 10° NNE
STARLINK-1135 4.1 06:01:24 10° WNW 06:04:26 36° NNE 06:07:27 10° E
Cosmos 1633 Rocket 3.0 06:01:40 10° NNW 06:06:03 75° W 06:10:24 10° S
STARLINK-1141 4.0 06:03:36 10° WNW 06:06:38 36° NNE 06:09:40 10° E
Cosmos 1666 Rocket 3.6 06:03:18 10° NNW 06:07:42 59° W 06:12:01 10° S
STARLINK-1140 4.0 06:05:38 10° WNW 06:08:41 37° NNE 06:11:44 10° E
STARLINK-1170 3.7 06:06:42 10° NW 06:09:09 32° NNE 06:11:35 10° E
STARLINK-1156 4.0 06:07:47 10° WNW 06:10:51 37° NNE 06:13:53 10° E
Cosmos 2221 4.0 06:08:50 10° WSW 06:11:40 17° WNW 06:14:31 10° NNW
STARLINK-1148 4.0 06:09:52 10° WNW 06:12:57 38° NNE 06:16:00 10° E
Helios 1A Rocket 2.9 06:08:59 10° N 06:13:08 69° WNW 06:17:14 10° SSW
SL-16 R/B 3.8 06:10:59 10° WNW 06:14:28 16° NW 06:17:58 10° N
STARLINK-1158 4.0 06:12:08 10° WNW 06:15:12 38° NNE 06:18:17 10° E
